Overview Statistics Trail Chart Weather Telemetry Raw packets
 

This is the latest recevied weather packets stored in our database for station/object K5BOU. If no packets are shown the sender has not sent any weather packets the latest 10 day(s).

<< 73 74 75 76 77 78 79 >>
Time Temp. Humidity Pressure Rain* Wind** Luminosity Snow
1788137243 31.67° C 71% 1011.8 hPa 0 mm - 2 W/m² -
1788136940 31.67° C 70% 1011.7 hPa 0 mm - 4 W/m² -
1788136635 32.22° C 70% 1011.7 hPa 0 mm - 7 W/m² -
1788136331 32.22° C 69% 1011.7 hPa 0 mm - 10 W/m² -
1788136030 32.22° C 68% 1011.4 hPa 0 mm - 16 W/m² -
1788135724 32.78° C 67% 1011.3 hPa 0 mm - 20 W/m² -
1788135421 32.78° C 66% 1011.4 hPa 0 mm - 25 W/m² -
1788135115 33.33° C 66% 1011.4 hPa 0 mm - 27 W/m² -
1788134812 33.33° C 65% 1011.4 hPa 0 mm - 32 W/m² -
1788134512 33.33° C 65% 1011.6 hPa 0 mm - 35 W/m² -
1788134210 33.33° C 65% 1011.7 hPa 0 mm - 38 W/m² -
1788133906 33.33° C 65% 1011.5 hPa 0 mm - 41 W/m² -
1788133600 33.33° C 65% 1011.5 hPa 0 mm - 44 W/m² -
1788133291 33.33° C 65% 1011.6 hPa 0 mm - 42 W/m² -
1788132986 33.33° C 65% 1011.3 hPa 0 mm - 38 W/m² -
1788132682 33.89° C 65% 1011.6 hPa 0 mm - 39 W/m² -
1788132378 33.89° C 65% 1011.5 hPa 0 mm - 45 W/m² -
1788132074 33.89° C 64% 1011.3 hPa 0 mm - 52 W/m² -
1788131770 34.44° C 63% 1011.6 hPa 0 mm - 55 W/m² -
1788131471 34.44° C 62% 1011.5 hPa 0 mm - 120 W/m² -
1788131164 35.56° C 61% 1011.2 hPa 0 mm - 107 W/m² -
1788130858 35.56° C 60% 1011.3 hPa 0 mm - 229 W/m² -
1788130553 36.11° C 59% 1011.3 hPa 0 mm - 248 W/m² -
1788130248 36.11° C 56% 1011.1 hPa 0 mm - 255 W/m² -
1788129946 35.56° C 59% 1011.4 hPa 0 mm - 278 W/m² -

* Rain latest hour (hover to see other rain measurements)
** Current wind speed in m/s (hover to see current wind gust speed)